Total_Precipitation_Accumulation
1.70 1.62 1.53 1.42 1.42 1.44 1.47 1.55 1.72 1.67 1.39 1.09 1.01 1.06 1.12 1.16 1.28 1.21 1.13 1.35 1.36 1.35 1.39 1.43 1.43 1.35 1.34 1.42 1.49 1.56 1.63 1.70 1.77 1.84 1.87 1.84 1.86 1.98
1.58 1.59 1.54 1.42 1.40 1.43 1.49 1.55 1.64 1.70 1.55 1.14 1.00 1.02 1.16 1.26 1.43 1.31 1.21 1.42 1.40 1.36 1.36 1.33 1.29 1.23 1.19 1.21 1.29 1.38 1.40 1.41 1.50 1.63 1.78 1.86 1.92 2.04
1.49 1.52 1.53 1.49 1.49 1.49 1.55 1.61 1.68 1.75 1.73 1.36 1.13 1.09 1.18 1.22 1.26 1.21 1.17 1.19 1.19 1.33 1.26 1.19 1.15 1.12 1.08 1.04 1.06 1.14 1.22 1.27 1.33 1.42 1.56 1.69 1.74 1.78
1.42 1.47 1.50 1.51 1.55 1.56 1.61 1.64 1.64 1.64 1.64 1.51 1.27 1.13 1.09 1.07 1.08 1.08 1.06 1.03 0.99 1.16 1.16 1.10 1.05 1.06 1.05 1.01 0.97 0.98 1.06 1.15 1.20 1.23 1.27 1.33 1.41 1.48
1.26 1.32 1.34 1.40 1.46 1.48 1.54 1.58 1.55 1.53 1.51 1.43 1.22 1.05 0.99 0.99 1.05 1.06 1.02 0.97 0.90 0.98 1.02 1.02 0.98 0.99 1.02 0.97 0.94 0.91 0.88 0.89 0.93 0.98 1.04 1.12 1.20 1.27
1.15 1.21 1.25 1.29 1.31 1.35 1.45 1.49 1.47 1.47 1.48 1.46 1.34 1.14 1.00 0.94 0.97 1.01 1.00 0.94 0.87 0.82 0.96 0.97 0.98 0.97 0.96 0.88 0.80 0.77 0.75 0.77 0.83 0.90 0.97 1.03 1.08 1.15
1.14 1.19 1.26 1.41 1.43 1.36 1.34 1.32 1.32 1.38 1.42 1.42 1.31 1.16 1.01 0.93 0.92 0.86 0.88 0.92 0.93 0.86 0.88 0.89 0.88 0.88 0.91 0.93 0.90 0.81 0.79 0.82 0.86 0.91 0.99 1.06 1.10 1.14
1.17 1.15 1.19 1.32 1.32 1.31 1.27 1.25 1.27 1.33 1.37 1.32 1.18 1.01 0.84 0.72 0.73 0.81 0.88 0.99 1.04 0.85 0.84 0.90 0.86 0.89 0.87 0.86 0.94 0.90 0.86 0.89 0.91 0.93 0.95 0.98 1.01 1.06
1.14 1.12 1.07 1.04 1.10 0.98 1.04 1.14 1.17 1.18 1.12 1.05 1.02 0.87 0.76 0.69 0.78 0.92 0.94 0.93 0.84 0.71 0.81 0.99 0.94 0.93 0.84 0.86 0.94 0.88 0.89 0.91 0.91 0.89 0.89 0.91 0.95 0.98
1.00 0.97 0.93 0.87 0.86 0.88 0.90 0.96 0.90 0.87 0.87 0.80 0.76 0.72 0.71 0.75 0.85 0.97 1.03 1.08 0.98 0.88 0.89 1.02 0.92 0.87 0.80 0.81 0.91 0.86 0.85 0.89 0.91 0.92 0.92 0.92 0.93 0.97
0.85 0.83 0.82 0.78 0.88 0.97 0.90 0.85 0.79 0.79 0.84 0.86 0.87 0.86 0.92 0.98 1.02 1.10 1.21 1.33 1.23 0.96 0.82 0.83 0.78 0.74 0.74 0.77 0.81 0.88 0.85 0.85 0.88 0.92 0.95 0.97 0.95 0.95
0.70 0.69 0.76 0.76 0.89 0.97 0.87 0.84 0.79 0.68 0.67 0.75 0.78 0.79 0.77 0.82 0.96 0.95 1.04 1.31 1.21 0.96 0.64 0.67 0.72 0.81 1.01 0.78 0.70 0.74 0.80 0.86 0.84 0.84 0.86 0.91 1.00 1.02
0.70 0.69 0.70 0.80 0.86 0.91 0.91 0.81 0.79 0.78 0.72 0.73 0.76 0.77 0.76 0.76 0.79 0.78 0.84 1.12 1.32 1.03 0.57 0.80 1.03 0.90 1.09 0.86 0.64 0.63 0.66 0.74 0.82 0.84 0.85 0.86 0.93 1.07
0.69 0.69 0.74 0.87 0.91 0.93 0.88 0.86 0.92 0.95 0.84 0.84 0.84 0.81 0.77 0.72 0.69 0.69 0.74 0.78 0.87 0.88 0.67 0.94 1.39 1.15 1.28 1.08 0.70 0.60 0.63 0.66 0.73 0.79 0.81 0.94 1.00 1.05
0.69 0.75 0.80 0.86 0.88 0.88 0.89 0.89 0.88 0.83 0.82 0.86 0.82 0.72 0.67 0.67 0.72 0.79 0.83 0.83 0.82 0.77 0.74 0.78 1.03 1.14 1.40 1.40 0.95 0.64 0.66 0.71 0.70 0.77 0.86 0.92 0.98 1.06
0.76 0.78 0.81 0.81 0.80 0.80 0.84 0.85 0.81 0.80 0.83 0.84 0.78 0.75 0.77 0.83 0.85 0.85 0.92 0.93 0.99 0.88 0.76 0.71 0.79 1.12 1.39 1.13 1.09 0.92 0.74 0.80 0.75 0.82 0.90 0.88 0.86 0.93
0.85 0.83 0.79 0.75 0.75 0.76 0.75 0.75 0.77 0.79 0.82 0.80 0.85 0.89 0.89 0.88 0.87 0.85 0.92 0.99 1.02 0.84 0.74 0.73 0.76 0.88 1.05 1.12 1.14 0.88 0.76 0.81 0.84 0.95 1.06 1.04 0.89 0.87
0.97 0.89 0.75 0.68 0.66 0.67 0.70 0.72 0.74 0.76 0.77 0.82 0.88 0.91 0.94 0.94 0.91 0.88 0.92 1.01 0.99 0.82 0.73 0.72 0.84 1.05 1.06 0.94 0.85 0.82 0.83 0.86 0.86 0.92 1.06 1.25 1.04 0.84
0.87 0.73 0.66 0.63 0.62 0.63 0.67 0.70 0.71 0.70 0.76 0.86 0.92 0.95 0.98 1.00 0.99 0.98 0.96 1.00 0.97 0.86 0.78 0.78 0.96 1.39 1.49 0.98 0.63 0.63 0.87 0.95 0.95 1.02 1.08 1.26 1.28 0.98
0.65 0.60 0.60 0.61 0.64 0.68 0.71 0.74 0.74 0.76 0.80 0.84 0.88 0.94 1.02 1.10 1.07 0.99 0.95 0.99 1.01 0.94 0.87 0.80 0.87 1.23 1.68 1.39 1.00 0.63 0.64 0.91 1.24 1.35 1.14 1.04 1.03 0.94
0.59 0.58 0.61 0.66 0.70 0.73 0.76 0.81 0.85 0.87 0.84 0.89 0.92 0.93 1.00 1.14 1.10 0.97 0.96 0.96 1.03 1.04 0.96 0.77 0.67 0.83 1.26 1.67 1.41 0.78 0.65 0.73 1.03 1.47 1.53 1.48 1.21 0.95
0.67 0.67 0.67 0.70 0.75 0.79 0.82 0.86 0.91 0.89 0.91 0.95 0.96 0.97 1.00 1.12 1.14 1.04 1.03 1.07 1.01 0.95 0.91 0.80 0.79 0.95 1.27 1.61 1.26 0.76 0.66 0.69 0.77 0.85 1.15 1.72 2.24 2.02
0.75 0.77 0.76 0.78 0.81 0.86 0.89 0.90 0.90 0.86 0.87 0.95 0.96 0.97 1.01 1.07 1.02 1.05 1.06 1.09 1.13 1.07 1.03 1.00 0.94 0.98 1.03 1.10 1.12 0.90 0.72 0.68 0.70 0.75 0.82 0.88 1.10 1.35